Flag for Hungary Weather past 2 weeks in Debrecen, Hungary

Now
41 °F

Clear.


Feels Like: 38 °F
Forecast: 39 / 66 °F
Wind: 5 mph from East

Location: Debrecen Airport

Current Time: Apr 22, 2015 at 6:45:35 AM

Latest Report: Apr 22, 2015 at 5:45 AM


Visibility: 10 mi

Pressure: 30.09 "Hg

Humidity: 76%

Dew point: 34 °F

Location of DebrecenLocation

Historic Weather in Debrecen — Graph

°F

Debrecen temperature yesterday

Maximum temperature yesterday: 59 °F (at 3:45 PM)
Minimum temperature yesterday: 41 °F (at 5:45 AM)
Average temperature yesterday: 52 °F

Past Weeks' High & Low Weather Summary

 TemperatureHumidityPressure
High79 °F (Apr 16, 1:45 PM)94% (Apr 17, 8:15 PM)30.42 "Hg (Apr 17, 8:15 PM)
Low32 °F (Apr 10, 6:15 AM)12% (Apr 9, 5:15 PM)29.74 "Hg (Apr 17, 3:15 PM)
Average55 °F45%30.13 "Hg
* Reported Apr 7 5:15 AM — Apr 22 5:15 AM, Debrecen, Weather by CustomWeather, © 2015

Note: Actual official high and low records may vary slightly from our data, if they occured in-between our weather recording intervals... More about our weather records

Advertising

Debrecen weather history for previous 24 hours

 ConditionsComfort  
Time TempWeatherWind HumidityBarometerVisibility
5:15 AM
Wed, Apr 22
39 °FClear.7 mph81%30.09 "Hg10 mi
4:45 AM41 °FClear.7 mph76%30.09 "Hg10 mi
8:45 PM
Tue, Apr 21
52 °FPartly cloudy.2 mph50%30.09 "HgN/A
8:15 PM52 °FLight rain. Broken clouds.3 mph47%30.09 "HgN/A
7:56 PM52 °FCool.N/A44%30.07 "HgN/A
7:45 PM52 °FSunny.2 mph44%30.07 "Hg10 mi
7:15 PM52 °FSunny.7 mph44%30.07 "Hg10 mi
6:45 PM54 °FSunny.9 mph41%30.07 "Hg10 mi
6:15 PM55 °FSunny.13 mph36%30.07 "Hg10 mi
5:45 PM57 °FSunny.14 mph31%30.07 "Hg10 mi
5:15 PM59 °FSunny.10 mph27%30.07 "Hg10 mi
4:45 PM59 °FSunny.8 mph29%30.07 "Hg10 mi
4:15 PM59 °FSunny.7 mph29%30.07 "Hg10 mi
3:45 PM59 °FSunny.10 mph31%30.07 "Hg10 mi
2:45 PM57 °FSunny.13 mph31%30.07 "Hg10 mi
2:15 PM57 °FSunny.9 mph29%30.09 "Hg10 mi
1:45 PM57 °FSunny.9 mph31%30.09 "Hg10 mi
1:15 PM55 °FPassing clouds.10 mph33%30.09 "HgN/A
12:45 PM55 °FScattered clouds.12 mph33%30.09 "HgN/A
12:15 PM55 °FPassing clouds.12 mph36%30.09 "HgN/A
11:45 AM55 °FScattered clouds.12 mph33%30.09 "HgN/A
11:15 AM54 °FScattered clouds.8 mph41%30.12 "HgN/A
10:45 AM54 °FScattered clouds.10 mph38%30.12 "HgN/A
10:15 AM52 °FPassing clouds.9 mph41%30.12 "HgN/A
9:45 AM52 °FSunny.8 mph47%30.12 "Hg10 mi
9:15 AM50 °FSunny.10 mph47%30.12 "Hg10 mi
8:45 AM48 °FSunny.10 mph50%30.12 "Hg10 mi
8:15 AM48 °FSunny.10 mph50%30.12 "Hg10 mi
7:45 AM46 °FSunny.9 mph50%30.09 "Hg10 mi
7:15 AM45 °FSunny.9 mph57%30.09 "Hg10 mi
6:45 AM45 °FSunny.7 mph57%30.09 "Hg10 mi
6:15 AM41 °FClear.6 mph66%30.09 "Hg10 mi
Weather by CustomWeather, © 2015

See weather overviewHow to use our weather pages